TimeCST,TemperatureF,Dew PointF,Humidity,Sea Level PressureIn,VisibilityMPH,Wind Direction,Wind SpeedMPH,Gust SpeedMPH,PrecipitationIn,Events,Conditions,WindDirDegrees,DateUTC
12:13 AM,35.6,28.4,75,30.05,10.0,SSW,6.9,-,N/A,,Clear,210,2012-11-15 06:13:00
12:32 AM,35.6,28.4,75,30.05,10.0,SW,5.8,-,N/A,,Clear,220,2012-11-15 06:32:00
12:53 AM,35.6,28.4,75,30.04,10.0,SSW,5.8,-,N/A,,Clear,210,2012-11-15 06:53:00
1:13 AM,35.6,28.4,75,30.04,10.0,SSW,4.6,-,N/A,,Clear,210,2012-11-15 07:13:00
1:33 AM,33.8,28.4,81,30.03,10.0,SSW,6.9,-,N/A,,Clear,210,2012-11-15 07:33:00
1:53 AM,35.6,28.4,75,30.03,10.0,SSW,5.8,-,N/A,,Clear,210,2012-11-15 07:53:00
2:12 AM,35.6,28.4,75,30.03,10.0,SSW,5.8,-,N/A,,Clear,210,2012-11-15 08:12:00
2:33 AM,35.6,28.4,75,30.02,10.0,SSW,6.9,-,N/A,,Clear,200,2012-11-15 08:33:00
2:53 AM,33.8,28.4,81,30.03,10.0,SSW,4.6,-,N/A,,Clear,210,2012-11-15 08:53:00
3:12 AM,33.8,28.4,81,30.02,10.0,South,4.6,-,N/A,,Scattered Clouds,190,2012-11-15 09:12:00
3:33 AM,33.8,28.4,81,30.01,10.0,South,5.8,-,N/A,,Scattered Clouds,180,2012-11-15 09:33:00
3:53 AM,33.8,28.4,81,30.01,10.0,South,5.8,-,N/A,,Clear,190,2012-11-15 09:53:00
4:12 AM,33.8,28.4,81,30.01,10.0,South,5.8,-,N/A,,Mostly Cloudy,190,2012-11-15 10:12:00
4:33 AM,33.8,28.4,81,30.01,10.0,SW,3.5,-,N/A,,Overcast,220,2012-11-15 10:33:00
4:53 AM,35.6,28.4,75,30.01,10.0,SSW,6.9,-,N/A,,Overcast,210,2012-11-15 10:53:00
5:12 AM,35.6,30.2,81,30.01,10.0,SSW,8.1,-,N/A,,Overcast,210,2012-11-15 11:12:00
5:33 AM,35.6,30.2,81,30.01,10.0,SSW,8.1,-,N/A,,Overcast,210,2012-11-15 11:33:00
5:52 AM,35.6,30.2,81,30.01,10.0,SSW,6.9,-,N/A,,Overcast,210,2012-11-15 11:52:00
6:13 AM,35.6,30.2,81,30.01,10.0,SW,6.9,-,N/A,,Overcast,230,2012-11-15 12:13:00
6:33 AM,35.6,30.2,81,30.02,10.0,SW,4.6,-,N/A,,Overcast,230,2012-11-15 12:33:00
6:52 AM,35.6,30.2,81,30.03,10.0,WSW,6.9,-,N/A,,Overcast,240,2012-11-15 12:52:00
7:13 AM,35.6,30.2,81,30.04,10.0,SW,8.1,-,N/A,,Scattered Clouds,230,2012-11-15 13:13:00
7:32 AM,33.8,30.2,87,30.05,10.0,WSW,5.8,-,N/A,,Clear,240,2012-11-15 13:32:00
7:53 AM,33.8,30.2,87,30.06,10.0,WSW,4.6,-,N/A,,Clear,250,2012-11-15 13:53:00
8:13 AM,33.8,30.2,87,30.07,10.0,WSW,6.9,-,N/A,,Clear,250,2012-11-15 14:13:00
8:32 AM,35.6,30.2,81,30.08,10.0,West,8.1,-,N/A,,Clear,260,2012-11-15 14:32:00
8:53 AM,35.6,30.2,81,30.09,10.0,West,13.8,19.6,N/A,,Scattered Clouds,280,2012-11-15 14:53:00
9:13 AM,33.8,30.2,87,30.11,10.0,WNW,10.4,21.9,N/A,,Overcast,290,2012-11-15 15:13:00
9:32 AM,33.8,28.4,81,30.12,10.0,WNW,6.9,-,N/A,,Overcast,290,2012-11-15 15:32:00
9:53 AM,33.8,26.6,75,30.13,10.0,WNW,11.5,17.3,N/A,,Mostly Cloudy,300,2012-11-15 15:53:00
10:13 AM,35.6,26.6,70,30.14,10.0,WNW,13.8,20.7,N/A,,Scattered Clouds,290,2012-11-15 16:13:00
10:32 AM,35.6,21.2,56,30.15,10.0,WNW,10.4,21.9,N/A,,Clear,290,2012-11-15 16:32:00
10:53 AM,35.6,21.2,56,30.16,10.0,West,8.1,18.4,N/A,,Clear,280,2012-11-15 16:53:00
11:13 AM,37.4,19.4,48,30.16,10.0,NW,13.8,18.4,N/A,,Clear,310,2012-11-15 17:13:00
11:32 AM,37.4,17.6,45,30.17,10.0,West,11.5,-,N/A,,Clear,280,2012-11-15 17:32:00
11:53 AM,37.4,12.2,36,30.17,10.0,WNW,15.0,20.7,N/A,,Clear,290,2012-11-15 17:53:00
12:13 PM,37.4,10.4,33,30.17,10.0,West,12.7,19.6,N/A,,Clear,280,2012-11-15 18:13:00
12:32 PM,37.4,10.4,33,30.18,10.0,WNW,13.8,19.6,N/A,,Clear,290,2012-11-15 18:32:00
12:53 PM,37.4,10.4,33,30.19,10.0,WNW,11.5,19.6,N/A,,Clear,290,2012-11-15 18:53:00
1:13 PM,37.4,10.4,33,30.20,10.0,West,11.5,18.4,N/A,,Clear,280,2012-11-15 19:13:00
1:33 PM,37.4,10.4,33,30.21,10.0,NNW,11.5,21.9,N/A,,Clear,330,2012-11-15 19:33:00
1:53 PM,37.4,10.4,33,30.21,10.0,WNW,15.0,18.4,N/A,,Clear,300,2012-11-15 19:53:00
2:13 PM,35.6,12.2,38,30.22,10.0,NW,10.4,16.1,N/A,,Clear,320,2012-11-15 20:13:00
2:32 PM,35.6,10.4,35,30.23,10.0,WNW,13.8,-,N/A,,Clear,300,2012-11-15 20:32:00
2:53 PM,35.6,12.2,38,30.25,10.0,WNW,12.7,-,N/A,,Clear,290,2012-11-15 20:53:00
3:13 PM,33.8,12.2,41,30.26,10.0,WNW,10.4,-,N/A,,Clear,300,2012-11-15 21:13:00
3:32 PM,33.8,12.2,41,30.27,10.0,WNW,11.5,17.3,N/A,,Clear,300,2012-11-15 21:32:00
3:53 PM,32.0,12.2,44,30.29,10.0,WNW,9.2,16.1,N/A,,Clear,300,2012-11-15 21:53:00
4:13 PM,30.2,12.2,47,30.30,10.0,NW,4.6,-,N/A,,Clear,310,2012-11-15 22:13:00
4:33 PM,30.2,14.0,51,30.31,10.0,WNW,6.9,-,N/A,,Clear,300,2012-11-15 22:33:00
4:53 PM,28.4,14.0,55,30.32,10.0,NW,3.5,-,N/A,,Clear,310,2012-11-15 22:53:00
5:13 PM,28.4,14.0,55,30.32,10.0,WNW,6.9,-,N/A,,Clear,300,2012-11-15 23:13:00
5:32 PM,28.4,15.8,59,30.33,10.0,NW,5.8,-,N/A,,Clear,310,2012-11-15 23:32:00
5:53 PM,26.6,15.8,64,30.34,10.0,NW,5.8,-,N/A,,Clear,320,2012-11-15 23:53:00
6:12 PM,26.6,15.8,64,30.35,10.0,NW,6.9,-,N/A,,Clear,310,2012-11-16 00:12:00
6:33 PM,26.6,15.8,64,30.35,10.0,NW,5.8,-,N/A,,Clear,320,2012-11-16 00:33:00
6:53 PM,26.6,15.8,64,30.35,10.0,NW,6.9,-,N/A,,Clear,310,2012-11-16 00:53:00
7:12 PM,24.8,15.8,69,30.36,10.0,NW,6.9,-,N/A,,Clear,320,2012-11-16 01:12:00
7:33 PM,24.8,15.8,69,30.36,10.0,NW,4.6,-,N/A,,Clear,310,2012-11-16 01:33:00
7:53 PM,24.8,15.8,69,30.37,10.0,NW,5.8,-,N/A,,Clear,310,2012-11-16 01:53:00
8:12 PM,24.8,15.8,69,30.37,10.0,NW,5.8,-,N/A,,Clear,310,2012-11-16 02:12:00
8:33 PM,24.8,15.8,69,30.38,10.0,NW,6.9,-,N/A,,Clear,310,2012-11-16 02:33:00
8:53 PM,23.0,15.8,74,30.38,10.0,NW,3.5,-,N/A,,Clear,320,2012-11-16 02:53:00
9:12 PM,23.0,15.8,74,30.39,10.0,Calm,Calm,-,N/A,,Clear,0,2012-11-16 03:12:00
9:33 PM,23.0,14.0,68,30.40,10.0,NNW,4.6,-,N/A,,Clear,340,2012-11-16 03:33:00
9:53 PM,21.2,14.0,74,30.40,10.0,Calm,Calm,-,N/A,,Clear,0,2012-11-16 03:53:00
10:12 PM,21.2,14.0,74,30.41,10.0,Calm,Calm,-,N/A,,Clear,0,2012-11-16 04:12:00
10:33 PM,21.2,14.0,74,30.41,10.0,Calm,Calm,-,N/A,,Clear,0,2012-11-16 04:33:00
10:53 PM,19.4,14.0,80,30.43,10.0,Calm,Calm,-,N/A,,Clear,0,2012-11-16 04:53:00
11:12 PM,17.6,14.0,86,30.43,10.0,Calm,Calm,-,N/A,,Clear,0,2012-11-16 05:12:00
11:33 PM,15.8,12.2,86,30.42,10.0,Calm,Calm,-,N/A,,Clear,0,2012-11-16 05:33:00
11:53 PM,15.8,14.0,93,30.44,10.0,Calm,Calm,-,N/A,,Clear,0,2012-11-16 05:53:00